Location: Unspecified
(0.0000°N, 0.0000°E)
Time: 08:48:50
(UTC+00:00)

Milstar 3 - Visible Passes

Search period start: 09 June 2026 00:00
Search period end: 19 June 2026 00:00
Orbit: 1097 x 5148 km, 28.2° (Epoch: 6 June)

Date Brightness Start Highest point End Pass type
(mag) Time Alt. Az. Time Alt. Az. Time Alt. Az.
9 Jun 6.1 01:48:03 23° SSE 01:48:03 23° SSE 02:02:01 10° ESE visible
9 Jun 5.8 04:21:36 20° SW 04:39:18 54° SSE 05:10:58 10° ENE visible
9 Jun 2.8 18:57:31 10° WNW 19:04:56 80° SSW 19:09:30 22° SE visible
10 Jun 6.5 00:50:08 11° SE 00:50:08 11° SE 00:50:41 10° SE visible
10 Jun 5.6 03:23:42 31° SSW 03:33:10 42° SSE 04:01:34 10° E visible
10 Jun 4.4 20:41:39 10° WSW 20:45:15 23° SW 20:45:15 23° SW visible
11 Jun 5.7 02:25:48 31° SSE 02:27:40 31° SSE 02:50:23 10° E visible
11 Jun 6.0 04:59:22 13° SW 05:21:45 71° SSE 05:54:49 10° ENE visible
11 Jun 3.5 19:38:42 10° W 19:45:09 39° SSW 19:47:26 31° SSE visible
12 Jun 6.2 01:27:54 20° SE 01:27:54 20° SE 01:38:24 10° ESE visible
12 Jun 5.6 04:01:28 27° SSW 04:15:32 57° SSE 04:47:04 10° ENE visible
12 Jun 3.1 18:35:41 10° WNW 18:43:36 66° SSW 18:49:37 13° SE visible
13 Jun 5.5 03:03:34 37° S 03:10:03 43° SSE 03:37:34 10° E visible
13 Jun 4.4 20:20:54 10° WSW 20:25:22 20° SSW 20:25:22 20° SSW visible
14 Jun 5.7 02:05:41 32° SSE 02:05:41 32° SSE 02:26:34 10° E visible
14 Jun 5.7 04:39:15 20° SW 04:57:37 75° SSE 05:30:53 10° ENE visible
14 Jun 3.9 19:17:20 10° W 19:23:48 33° SSW 19:27:32 20° SSE visible
15 Jun 6.2 01:07:48 18° SE 01:07:48 18° SE 01:14:56 10° ESE visible
15 Jun 5.4 03:41:22 35° SSW 03:51:55 59° SSE 04:22:54 10° ENE visible
15 Jun 3.4 18:13:44 10° WNW 18:22:13 56° SSW 18:28:41 10° SE visible
16 Jun 5.3 02:43:29 42° S 02:47:02 45° SSE 03:13:25 10° E visible
16 Jun 5.9 05:17:03 11° WSW 05:39:53 86° NNW 06:13:33 10° ENE visible
16 Jun 4.5 20:00:11 10° WSW 20:04:26 17° SSW 20:05:28 16° SSW visible
17 Jun 5.8 01:45:36 31° SE 01:45:36 31° SE 02:02:44 10° E visible
17 Jun 5.4 04:19:10 28° SW 04:33:43 79° SSE 05:06:40 10° ENE visible
17 Jun 4.2 18:55:54 10° W 19:02:24 28° SSW 19:07:38 11° SSE visible
18 Jun 6.3 00:47:43 15° ESE 00:47:43 15° ESE 00:51:39 10° ESE visible
18 Jun 5.1 03:21:17 45° SSW 03:28:31 63° SE 03:58:32 10° ENE visible
